CW0762 Weather Reports


Display with metric or nautical units.
time (UTC)temp
F
wind
direction
speed
MPH
gust
MPH
rain 1hr
in
rain 24hr
in
rain mn
in
humidity
%
barometer
mb
20260502220046 76 132 0.0 4.0 0.00 0.00 0.00 37 1020.3
20260502214546 78 140 2.0 8.0 0.00 0.00 0.00 36 1020.5
20260502213044 79 101 0.0 2.0 0.00 0.00 0.00 35 1020.7
20260502211543 78 105 2.0 5.0 0.00 0.00 0.00 34 1020.8
20260502210043 78 284 0.0 4.0 0.00 0.00 0.00 35 1021.1
20260502204542 78 276 0.0 4.0 0.00 0.00 0.00 35 1021.3
20260502203042 77 50 1.0 5.0 0.00 0.00 0.00 34 1021.5
20260502201547 77 107 2.0 7.0 0.00 0.00 0.00 34 1021.6
20260502200039 78 271 0.0 4.0 0.00 0.00 0.00 35 1021.8
20260502194537 77 124 2.0 5.0 0.00 0.00 0.00 35 1021.9
20260502193037 76 126 1.0 5.0 0.00 0.00 0.00 35 1022.0
20260502191543 78 279 0.0 2.0 0.00 0.00 0.00 35 1022.3
20260502190035 77 271 1.0 5.0 0.00 0.00 0.00 35 1022.4
20260502184540 76 120 0.0 5.0 0.00 0.00 0.00 35 1022.6
20260502183037 76 120 1.0 5.0 0.00 0.00 0.00 35 1022.8
20260502181537 76 279 0.0 3.0 0.00 0.00 0.00 35 1023.0
20260502163015 70 197 0.0 3.0 0.00 0.00 0.00 41 1023.9
20260502161511 69 283 0.0 3.0 0.00 0.00 0.00 43 1023.9
20260502151605 65 283 0.0 2.0 0.00 0.00 0.00 52 1023.8
20260502123031 49 283 0.0 0.0 0.00 0.00 0.00 91 1022.5
20260502121538 49 283 0.0 0.0 0.00 0.00 0.00 90 1022.1
20260502114524 49 283 0.0 0.0 0.00 0.00 0.00 89 1021.7
20260502113022 49 283 0.0 0.0 0.00 0.00 0.00 89 1021.7
20260502111518 50 283 0.0 0.0 0.00 0.00 0.00 89 1021.3
20260502110021 50 283 0.0 0.0 0.00 0.00 0.00 89 1021.1
20260502104516 50 283 0.0 0.0 0.00 0.00 0.00 90 1021.0
20260502103020 51 283 0.0 0.0 0.00 0.00 0.00 90 1021.0
20260502101515 51 283 0.0 0.0 0.00 0.00 0.00 89 1020.8
20260502091510 50 283 0.0 0.0 0.00 0.00 0.00 86 1020.6
20260502070059 53 283 0.0 0.0 0.00 0.00 0.00 85 1020.8
20260502064601 53 283 0.0 0.0 0.00 0.00 0.00 85 1020.8
20260502063058 54 283 0.0 0.0 0.00 0.00 0.00 84 1020.8
20260502061554 54 283 0.0 0.0 0.00 0.00 0.00 84 1020.8
20260502060049 55 283 0.0 0.0 0.00 0.00 0.00 84 1020.7
20260502054548 55 283 0.0 0.0 0.00 0.00 0.00 84 1020.6
20260502053047 56 283 0.0 0.0 0.00 0.00 0.00 84 1020.5
20260502051545 56 283 0.0 0.0 0.00 0.00 0.00 84 1020.7
20260502050042 56 283 0.0 1.0 0.00 0.00 0.00 84 1020.7
20260502044540 57 283 0.0 2.0 0.00 0.00 0.00 82 1020.6
20260502043039 57 283 0.0 0.0 0.00 0.00 0.00 80 1020.6
20260502041537 57 283 0.0 0.0 0.00 0.00 0.00 79 1020.5
20260502040035 58 283 0.0 0.0 0.00 0.00 0.00 78 1020.4
20260502034535 58 283 0.0 0.0 0.00 0.00 0.00 77 1020.3
20260502033043 59 283 0.0 0.0 0.00 0.00 0.00 75 1020.3
20260502031533 60 283 0.0 0.0 0.00 0.00 0.00 74 1020.1
20260502030030 60 283 0.0 0.0 0.00 0.00 0.00 73 1020.0
20260502024530 61 283 0.0 0.0 0.00 0.00 0.00 73 1019.8
20260502023028 61 283 0.0 0.0 0.00 0.00 0.00 70 1019.6
20260502021527 61 283 0.0 0.0 0.00 0.00 0.00 67 1019.5
20260502020026 62 283 0.0 0.0 0.00 0.00 0.00 66 1019.2
20260502014528 62 283 0.0 0.0 0.00 0.00 0.00 65 1018.9
20260502013026 63 283 0.0 0.0 0.00 0.00 0.00 64 1018.6
20260502011525 63 283 0.0 0.0 0.00 0.00 0.00 63 1018.1
20260502010025 63 283 0.0 0.0 0.00 0.00 0.00 63 1017.9
20260502004539 64 283 0.0 0.0 0.00 0.00 0.00 63 1017.7
20260502003024 64 283 0.0 0.0 0.00 0.00 0.00 62 1017.6
20260502001526 65 283 0.0 0.0 0.00 0.00 0.00 63 1017.4
20260502000031 65 283 0.0 0.0 0.00 0.00 0.00 61 1017.2
20260501234528 65 283 0.0 1.0 0.00 0.00 0.00 60 1017.0
20260501233022 65 283 0.0 1.0 0.00 0.00 0.00 59 1016.9
20260501231535 65 283 0.0 1.0 0.00 0.00 0.00 59 1016.7
20260501230021 65 283 0.0 1.0 0.00 0.00 0.00 58 1016.7
20260501224520 65 283 0.0 1.0 0.00 0.00 0.00 57 1016.7
20260501223020 65 277 0.0 3.0 0.00 0.00 0.00 58 1016.6
20260501221521 65 275 0.0 2.0 0.00 0.00 0.00 58 1016.5